Location: ????????
(48.4751°N, 37.6926°E)
Time: 19:56:39
(UTC+00:00)

Cosmos 1892 Rocket - Pass Details

Date: 20 January 2021
Orbit: 607 x 632 km, 82.5° (Epoch: 02 March)

Event Time Altitude Azimuth Distance (km) Brightness Sun altitude
Rises 15:16:09 0° 175° (S) 2,863 7.1 -11.0°
Reaches altitude 10° 15:18:24 10° 170° (S) 1,961 6.2 -11.3°
Maximum altitude 15:22:36 52° 94° (E) 763 3.7 -12.0°
Drops below altitude 10° 15:26:50 10° 19° (NNE) 1,970 5.8 -12.6°
Sets 15:29:05 0° 14° (NNE) 2,878 6.7 -13.0°
